Погода в Сайылыке

Россия / Республика Саха (Якутия)     68°57′53″N   138°24′41″E
темп.,
°C
ветер,
м/с
пор.,
м/с
влажн.,
%
обл.,
%
осадки,
мм/ч
давл.,
гПа
погр.,
м
4 марта, чт
чт401:00−32ссз1197100 0.1 101919
04:00−32сз2298100 0.2 101826
07:00−33ссз2398100 0.1 101736
10:00−32зсз2397100 0.2 1017162
13:00−31зсз4595100 0.1 1016265
16:00−31з5795100 0.2 1016245
19:00−31з5796100 0.1 1018191
22:00−31зсз5896100 0.3 1019239
5 марта, пт
пт501:00−31зсз5996100 0.2 1019283
04:00−31зсз5996100 0.4 1020328
07:00−30зсз5996100 0.3 1021365
10:00−30зсз61094100 0.4 1021449
13:00−29зсз71090100 0.1 1021537
16:00−28з81290100 0.1 1021572
19:00−29з71291100 0.1 1023517
22:00−29зсз61092100 0.2 1024438
6 марта, сб
сб601:00−29зсз6994100 0.1 1024389
04:00−29зсз5895100 0.3 1024364
07:00−29зсз5896100 0.3 1025322
10:00−29зсз4791100 0.3 1025311
13:00−29зсз4692100 0.0 1024325
16:00−30зсз4694100 0.0 1024214
19:00−32зсз3395100 0.0 102522
22:00−34сз2297100 0.0 102519
7 марта, вс
вс701:00−36сз1299100 0.0 102519
04:00−37сз1199100 0.0 102419
07:00−38сз1199100 0.0 102519
10:00−36сз0196100 0.0 102419
13:00−33с0195100 0.0 102373
16:00−33вюв0196100 0.0 102319
19:00−36зсз01100100 0.0 102319
22:00−37вюв0010097 0.0 102319
8 марта, пн
пн801:00−37в0010083 0.0 102219
04:00−37в0010083 0.0 102219
07:00−38в0010083 0.0 102219
10:00−36всв009772 0.0 102119
13:00−32вюв009466 0.0 102052
16:00−33вюв119461 0.0 101919
19:00−35ююв019974 0.0 101919
22:00−36вюв019878 0.0 101919